User: anonymous   Login
Location: Unspecified
(0.0000°N, 0.0000°E)
Time: 12:09:40
(UTC+00:00)
Language:

Tiangong 1 - Orbit

View from above orbital plane
View from above orbital plane
View from above satellite
View from above satellite

Ground track
Ground track

The orbit data is extracted from the following two-line orbital elements,

1 37820U 11053A   15244.18777931  .00017093  00000-0  17838-3 0  9999
2 37820  42.7648 180.5577 0013963 196.9163 296.4704 15.64088675225217
Epoch (UTC): 01 September 2015 04:30:24
Eccentricity: 0.0013963
inclination: 42.7648°
perigee height: 366 km
apogee height: 385 km
right ascension of ascending node: 180.5577°
argument of perigee: 196.9163°
revolutions per day: 15.64088675
mean anomaly at epoch: 296.4704°
orbit number at epoch: 22521

The dashed part of the orbit path shows where the satellite is in the earth's shadow,  

DLR